Regional Weather Roundup
Issued by NWS Portland, ME

Current Version | Previous Version | Text Only | Print | Product List | Glossary Off
Versions: 1 2 3 4 5 6 7 8 9 10 11 12 13 14 15 16 17 18 19 20 21 22 23 24 25 26 27 28 29 30 31 32 33 34 35 36 37 38 39 40 41 42 43 44 45 46 47 48 49 50
000 ASUS41 KGYX 191305 RWRGYX WEATHER ROUNDUP FOR MAINE AND NEW HAMPSHIRE NATIONAL WEATHER SERVICE GRAY ME 800 AM EST MON FEB 19 2018 MEZ002-005-006-010-012-015-018-020-021-024-026-027-029-191400- MAINE CITY SKY/WX TMP DP RH WIND PRES REMARKS PORTLAND FAIR 21 18 88 CALM 30.53F SANFORD FAIR 19 16 88 S3 30.51F BAR HARBOR FAIR 23 20 88 NW3 30.56R WISCASSET FAIR 20 19 96 CALM 30.55S ROCKLAND FAIR 30 27 88 SE3 30.53F FRYEBURG FAIR 16 15 96 CALM 30.49F LEWISTONAUBURN FAIR 16 14 92 NE5 30.51F AUGUSTA FAIR 24 19 81 SW5 30.52R WATERVILLE FAIR 21 19 92 SW3 30.47S BANGOR FAIR 13 12 96 CALM 30.53S GREENVILLE N/A 23 16 74 SE8 30.38F MILLINOCKET FAIR 8 7 95 CALM 30.50F HOULTON FAIR 21 15 78 S6 30.48F PRESQUE ISLE PTSUNNY 16 14 92 CALM 30.47S FRENCHVILLE CLOUDY 15 12 88 SE9 30.39F CARIBOU CLOUDY 16 11 80 CALM 30.44S $$ NHZ002-005-008-009-011-012-014-191400- NEW HAMPSHIRE CITY SKY/WX TMP DP RH WIND PRES REMARKS PORTSMOUTH MOSUNNY 22 20 93 CALM 30.52F ROCHESTER FAIR 20 18 92 CALM 30.51F NASHUA FAIR 20 18 92 E3 30.53F MANCHESTER FAIR 21 18 88 CALM 30.51F CONCORD FAIR 18 17 96 CALM 30.51F LACONIA FAIR 19 16 88 CALM 30.49F PLYMOUTH FAIR 10 8 92 CALM 30.50S BERLIN FAIR 4 2 91 CALM 30.39F WHITEFIELD FAIR 4 3 96 CALM 30.39F JAFFREY FAIR 17 16 95 CALM 30.45F KEENE FAIR 16 15 96 CALM 30.49F LEBANON FAIR 16 13 88 CALM 30.44S MT WASHINGTON NOT AVBL $$ VTZ005-007-008-191400- VERMONT CITY SKY/WX TMP DP RH WIND PRES REMARKS ST JOHNSBURY N/A 11 10 96 MISG 30.42S MONTPELIER FAIR 26 19 74 S7 30.40S BURLINGTON PTSUNNY 33 20 58 S17G29 30.35R $$ MAZ007-012-024-CTZ003-RIZ002-NYZ038-NYZ072-191400- SOUTHERN NEW ENGLAND AND NY CITY SKY/WX TMP DP RH WIND PRES REMARKS BOSTON FAIR 31 26 82 S6 30.56S WORCESTER FAIR 28 21 75 S10 30.49S WCI 19 NANTUCKET FAIR 40 36 86 S12 30.60S PROVIDENCE FAIR 31 27 85 CALM 30.57F HARTFORD FAIR 21 18 88 CALM 30.53R ALBANY FAIR 33 20 58 S13G24 30.43F NEW YORK CITY PTSUNNY 40 36 86 S6 30.52S $$ ANZ081-ANZ082-ANZ150-NHZ014-MEZ023>029-191400- COASTAL MARINE OBSERVATIONS STATION/POSITION TIME TEMP WIND PRES WAVE AIR SEA DIR/SP/G HT/PER (UTC) (F) (DEG/KT/KT) (MB) (FT/S) MOUNT DESERT ROC 1300 39 170/ 18/ 20 1034.6F MATINICUS ROCK 1200 38 170/ 18/ 19 1033.6F ISLE OF SHOALS 1200 35 220/ 8/ 9 1034.1R JEFFREYS LEDGE 1236 42 N/A 5/ 9 GEORGES BANK BUO 1150 40 58 1029.5 20/11 $$ .............KEY.............. WCI - WIND CHILL TC - TEMPERATURE IN CELSIUS VSB - VISIBILITY IN MILES HX - HEAT INDEX FAIR- INDICATES FEW OR NO CLOUDS BELOW 12,000 FT, WITH NO SIGNIFICANT WEATHER AND/OR OBSTRUCTIONS TO VISIBILITY.

USA.gov is the U.S. government's official web portal to all federal, state and local government web resources and services.